Tetonia, ID

8:31 PM MDT on September 27, 2016 (GMT -0600)
Driggs

Weather History for KDIJ - November, 2013

Change the Weather History Date:

Sunday, November 10, 2013

  Actual Average (KRXE) Record (KRXE)
Temperature  
Mean Temperature 42 °F 34 °F  
Max Temperature 55 °F 44 °F 58 °F (1999)
Min Temperature 29 °F 23 °F 5 °F (2000)
Degree Days  
Heating Degree Days 23 31  
Month to date heating degree days 290  
Since 1 July heating degree days 1277  
Cooling Degree Days 0 0  
Month to date cooling degree days 0  
Year to date cooling degree days 208  
Moisture  
Dew Point 28 °F    
Average Humidity 66    
Maximum Humidity 82    
Minimum Humidity 34    
Precipitation  
Precipitation 0.00 in 0.05 in 0.35 in (1982)
Month to date precipitation 0.40  
Year to date precipitation 11.39  
Sea Level Pressure  
Sea Level Pressure 30.21 in    
Wind  
Wind Speed 7 mph (SE)    
Max Wind Speed 14 mph    
Max Gust Speed -    
Visibility 10 miles    
Events      
T = Trace of Precipitation, MM = Missing Value Source: NWS Daily Summary

Daily Weather History Graph

Daily Weather History Graph

Search for Another Location

Airport or City:

Trip Planner

Search our weather history database for the weather conditions in past years. The results will help you decide how hot, cold, wet, or windy it might be!

Date:

Astronomy

Nov. 10, 2013 Rise Set
Actual Time 7:12 AM MST 5:03 PM MST
Civil Twilight 6:41 AM MST 5:34 PM MST
Nautical Twilight 6:07 AM MST 6:08 PM MST
Astronomical Twilight 5:33 AM MST 6:42 PM MST
Moon 1:23 PM MST (11/10) No Moon Set
Length of Visible Light 10h 52m
Length of Day
9h 51m
First Quarter, 56% of the Moon is Illuminated
Nov 10
First Quarter
Nov 17
Full
Nov 25
Last Quarter
Dec 2
New
Dec 9
First Quarter

Hourly Weather History & Observations

Time (MST) Temp. Windchill Dew Point Humidity Pressure Visibility Wind Dir Wind Speed Gust Speed Precip Events Conditions
12:56 AM 34.0 °F 28.0 °F 28.0 °F 79% 30.19 in 10.0 mi ESE 6.9 mph - N/A   Mostly Cloudy
1:56 AM 32.9 °F 26.7 °F 28.0 °F 82% 30.18 in 10.0 mi ESE 6.9 mph - N/A   Clear
2:56 AM 32.0 °F 28.7 °F 27.1 °F 82% 30.19 in 10.0 mi SE 3.5 mph - N/A   Clear
3:56 AM 32.9 °F 27.5 °F 27.1 °F 79% 30.19 in 10.0 mi SE 5.8 mph - N/A   Clear
4:56 AM 30.0 °F 24.1 °F 25.2 °F 82% 30.23 in 10.0 mi ESE 5.8 mph - N/A   Clear
5:56 AM 29.1 °F 24.1 °F 24.1 °F 81% 30.27 in 10.0 mi ESE 4.6 mph - N/A   Clear
6:56 AM 30.0 °F 24.1 °F 25.2 °F 82% 30.27 in 10.0 mi SE 5.8 mph - N/A   Clear
7:56 AM 32.9 °F 27.5 °F 28.0 °F 82% 30.29 in 10.0 mi East 5.8 mph - N/A   Mostly Cloudy
8:56 AM 36.9 °F 33.1 °F 30.0 °F 76% 30.29 in 10.0 mi SE 4.6 mph - N/A   Scattered Clouds
9:56 AM 45.0 °F 43.5 °F 32.0 °F 60% 30.24 in 9.0 mi SE 3.5 mph - N/A   Partly Cloudy
10:56 AM 52.0 °F - 30.0 °F 43% 30.20 in 10.0 mi South 10.4 mph - N/A   Clear
11:56 AM 54.0 °F - 29.1 °F 39% 30.17 in 9.0 mi South 13.8 mph - N/A   Clear
12:56 PM 55.9 °F - 29.1 °F 36% 30.15 in 10.0 mi SSW 13.8 mph - N/A   Clear
1:56 PM 55.9 °F - 28.0 °F 34% 30.14 in 9.0 mi SSW 11.5 mph - N/A   Clear
2:56 PM 54.9 °F - 27.1 °F 34% 30.15 in 10.0 mi South 10.4 mph - N/A   Clear
3:56 PM 54.0 °F - 27.1 °F 36% 30.15 in 10.0 mi South 11.5 mph - N/A   Clear
4:56 PM 46.9 °F - 28.0 °F 48% 30.19 in 10.0 mi South 8.1 mph - N/A   Clear
5:56 PM 36.9 °F - 28.0 °F 70% 30.24 in 10.0 mi Calm Calm - N/A   Clear
6:56 PM 34.0 °F 29.8 °F 28.0 °F 79% 30.26 in 10.0 mi SE 4.6 mph - N/A   Clear
7:56 PM 32.0 °F 25.6 °F 27.1 °F 82% 30.26 in 10.0 mi East 6.9 mph - N/A   Clear
8:56 PM 32.9 °F 27.5 °F 27.1 °F 79% 30.24 in 10.0 mi East 5.8 mph - N/A   Clear
9:56 PM 32.0 °F 26.4 °F 26.1 °F 79% 30.21 in 10.0 mi East 5.8 mph - N/A   Clear
10:56 PM 34.9 °F 29.0 °F 26.1 °F 70% 30.18 in 10.0 mi ESE 6.9 mph - N/A   Clear
11:56 PM 34.0 °F 27.2 °F 27.1 °F 76% 30.18 in 10.0 mi ESE 8.1 mph - N/A   Scattered Clouds